www.pogodaiklimat.ru

Погода и климат >> Архив погоды >> Кувейт >> Абраке Аль Хабари


ПОГОДА на Абраке Аль Хабари

  • Прогноз погоды на Абраке Аль Хабари
  • Монитор погоды на Абраке Аль Хабари

АРХИВ ПОГОДЫ на Абраке Аль Хабари

Время (UTC), дата Ветер
(напр.,м/с)
 
Видим.   Явления Облачность Т
(С)
Тd
(С)
f
(%)
Тe
(С)
Тes
(С)
Комфортность P
(гПа)
Po
(гПа)
Тmin
(С)
Tmax
(С)
R
(мм)
R24
(мм)
S
(см)
03 13.09 ЮЗ 3-4
{4}
1900 м дымка н/о +25.5 +5.4 27 +25 +25 комфорт 1006.5 979.6
06 13.09 ЮЗ 3-4
{4}
17 км н/о +35.3 +6.3 17 +33 +33 жарко 1007.4 981.3
09 13.09 Ю 2-4
{6}
17 км н/о +39.8 +6.1 13 +37 +37 очень
жарко
1006.1 980.4
12 13.09 СВ 3-5
{7}
18 км н/о +41.6 +4.6 11 +39 +39 очень
жарко
1004.0 978.5
15 13.09 С 3-4
{6}
20 км н/о +39.2 +3.9 11 +36 +36 очень
жарко
1004.2 978.5
18 13.09 В 5-6
{6}
18 км н/о +33.4 +3.8 16 +31 +31 жарко 1005.9 979.7
21 13.09 ЮВ 2-3
{7}
14 км н/о +30.0 +6.9 23 +29 +29 жарко 1005.8 979.3 +25.3 +42.2
00 14.09 Ю 6-6
{7}
14 км дымка н/о +28.2 +6.7 26 +27 +27 жарко 1005.7 979.0
03 14.09 ЮЗ 4-5
{6}
10 км дымка н/о +26.8 +6.1 27 +26 +26 жарко 1007.0 980.2
06 14.09 ЮЗ 3-5
{6}
14 км н/о +37.2 +5.6 14 +34 +34 очень
жарко
1007.7 981.7
09 14.09 Ю 2-6
{7}
16 км н/о +40.9 +4.4 11 +38 +38 очень
жарко
1005.7 980.1
12 14.09 СЗ 2-4
{11}
18 км н/о +42.5 +4.8 10 +39 +39 очень
жарко
1004.1 978.7
15 14.09 В 4-5
{6}
13 км н/о +40.5 +4.6 11 +37 +37 очень
жарко
1003.8 978.2
18 14.09 В 6-7
{7}
17 км н/о +34.7 +4.6 15 +32 +32 жарко 1005.5 979.4
21 14.09 ЮВ 3-4
{7}
12 км н/о +31.1 +6.3 21 +29 +29 жарко 1005.6 979.2 +26.8 +44.6
00 15.09 Ю 6-6
{7}
17 км н/о +28.8 +5.4 23 +28 +28 жарко 1005.3 978.7
03 15.09 ЮЗ 4-4
{7}
8000 м дым н/о +27.5 +5.1 24 +26 +26 жарко 1007.1 980.3
06 15.09 Ю 6-8
{8}
17 км н/о +37.1 +4.3 13 +34 +34 очень
жарко
1007.4 981.4
09 15.09 ЮЗ 7-10
{12}
15 км н/о +42.0 +5.9 11 +39 +39 очень
жарко
1005.6 980.1
12 15.09 ЮЗ 3-6
{12}
17 км н/о +44.0 +3.9 9 +41 +41 опасность
перегрева
1003.6 978.3
15 15.09 ЮВ 4-5
{7}
13 км н/о +40.7 +2.7 10 +37 +37 очень
жарко
1003.9 978.3
18 15.09 ЮВ 5-8
{9}
14 км н/о +34.8 +8.2 20 +33 +33 жарко 1005.9 979.8
21 15.09 Ю 6-7
{8}
18 км н/о +31.9 +7.9 23 +31 +31 жарко 1005.9 979.5 +27.2 +44.7
00 16.09 ЮЗ 6-7
{12}
19 км н/о +30.0 +6.8 23 +29 +29 жарко 1006.1 979.6
03 16.09 ЮЗ 5-6
{8}
2900 м дым н/о +29.3 +6.2 23 +28 +28 жарко 1006.9 980.3
06 16.09 З 4-5
{8}
13 км н/о +36.8 +2.6 12 +34 +34 очень
жарко
1007.7 981.7
09 16.09 СЗ 3-6
{7}
15 км н/о +43.0 +4.1 9 +40 +40 очень
жарко
1005.9 980.5
12 16.09 СВ 3-5
{7}
15 км н/о +44.1 +2.5 8 +41 +41 опасность
перегрева
1004.2 978.9
15 16.09 В 5-7
{7}
9000 м дым н/о +41.2 +3.8 10 +38 +38 очень
жарко
1004.4 978.9
18 16.09 ЮВ 2-3
{8}
11 км дым н/о +34.0 +4.7 16 +31 +31 жарко 1006.4 980.2
21 16.09 ЮЗ 4-4
{4}
10 км н/о +30.8 +9.4 27 +30 +30 жарко 1006.4 979.9 +29.2 +45.0
00 17.09 З 4-4
{5}
14 км н/о +28.7 +9.7 31 +29 +29 жарко 1005.8 979.2
03 17.09 З 3-5
{5}
8000 м дымка н/о +28.5 +8.9 29 +28 +28 жарко 1006.8 980.1
06 17.09 З 3-4
{5}
14 км н/о +37.3 +7.3 16 +35 +35 очень
жарко
1006.9 981.0
09 17.09 СВ 4-7
{7}
12 км н/о +43.5 +4.7 10 +41 +41 опасность
перегрева
1004.7 979.3
12 17.09 В 5-8
{11}
18 км н/о +44.8 +0.2 7 +41 +41 опасность
перегрева
1002.8 977.6
15 17.09 ЮВ 5-5
{9}
7000 м дым н/о +40.5 -1.1 7 +36 +36 очень
жарко
1002.9 977.3
18 17.09 ЮВ 3-4
{9}
12 км дым н/о +35.5 +0.4 11 +32 +32 жарко 1005.4 979.4
21 17.09 З 2-3
{3}
14 км н/о +33.2 +0.8 13 +30 +30 жарко 1005.6 979.4 +27.7 +45.7
00 18.09 З 3-3
{5}
12 км н/о +31.2 +3.6 17 +29 +29 жарко 1005.1 978.7
03 18.09 З 3-3
{3}
6000 м дымка н/о +27.3 +5.6 25 +26 +26 жарко 1006.7 979.9
06 18.09 СЗ 5-7
{8}
15 км н/о +36.7 +8.1 17 +35 +35 очень
жарко
1007.7 981.7
09 18.09 С 7-9
{13}
16 км н/о +44.2 +5.4 10 +41 +41 опасность
перегрева
1006.0 980.6
12 18.09 С 5-8
{13}
18 км н/о +44.5 +0.3 7 +41 +41 опасность
перегрева
1004.6 979.3
15 18.09 С 6-9
{11}
17 км н/о +41.3 +2.5 9 +38 +38 очень
жарко
1005.6 980.0
18 18.09 С 6-7
{11}
16 км н/о +36.0 +6.3 16 +34 +34 очень
жарко
1008.1 982.0
21 18.09 СЗ 6-8
{10}
12 км н/о +32.7 +5.4 18 +30 +30 жарко 1008.2 981.9 +26.8 +45.6
00 19.09 СЗ 6-9
{10}
16 км н/о +30.3 +3.6 18 +28 +28 жарко 1008.2 981.6
03 19.09 СЗ 7-10
{10}
16 км н/о +28.0 +2.6 19 +26 +26 жарко 1009.5 982.7
06 19.09 СЗ 11-14
{14}
10 км дым н/о +35.9 +2.8 13 +33 +33 жарко 1009.9 983.8
09 19.09 С 14-17
{22}
1800 м дым н/о +42.0 +1.1 8 +38 +38 очень
жарко
1008.3 982.7
12 19.09 С 12-17
{22}
6000 м дым н/о +42.3 +3.2 9 +39 +39 очень
жарко
1006.9 981.4
15 19.09 С 9-11
{15}
15 км н/о +38.7 +2.7 11 +35 +35 очень
жарко
1007.6 981.8
18 19.09 СЗ 5-5
{15}
16 км н/о +33.5 +2.8 14 +30 +30 жарко 1008.9 982.6
21 19.09 СЗ 6-7
{8}
15 км н/о +30.8 +4.5 19 +29 +29 жарко 1008.4 981.9 +27.8 +43.3
00 20.09 З 6-7
{9}
18 км н/о +29.2 +4.3 20 +27 +27 жарко 1007.5 980.9

 

Местоположение метеостанции Абраке Аль Хабари (Кувейт): широта 29.30 долгота 47.00 высота над уровнем моря 237 м.

В архиве по умолчанию представлена погода на Абраке Аль Хабари за последнюю неделю. Архивные данные за месяц целиком и за предыдущие месяцы, начиная с января 2011 года, Вы можете получить, выбрав интересующий диапазон дат из раскрывающегося списка и нажав кнопку "Ввод!".


*Определитесь, кто Вы:
робот инопланетянин человек

Внимание! Время в таблицах - всемирное. Для получения местного времени необходимо прибавить поправку, которая равна 3 ч.

Смотрите также архив погоды в соседних городах и на ближайших метеорологических станциях:

Погода на Аль-Салми (Кувейт) (38 км)
Погода в Минагише (Кувейт) (57 км)
Погода в Эль-Джахра (Кувейт) (65 км)
Погода на Метеостанции Jal Aliyah (Кувейт) (66 км)
Погода на Метеостанции Mintribah (Кувейт) (68 км)
Погода в Сулайбии (Кувейт) (70 км)
Погода на Экспериментальной ферме (Кувейт) (91 км)
Погода в Эль-Кувейте (Кувейт) (95 км)
Погода на Метеостанции Sabriyah (Кувейт) (96 км)
Погода в Кувейт Сити (Кувейт) (102 км)

Пояснения к столбцам:

Ветер - указаны скорость ветра в м/с - средняя за 10 мин, порывы в срок и между сроками (в фигурных скобках) и направление, откуда дует ветер: С - северный, СВ - северо-восточный, В - восточный, ЮВ - юго-восточный, Ю - южный, ЮЗ - юго-западный, З - западный, СЗ - северо-западный.
Видимость - горизонтальная дальность видимости в метрах или километрах. При видимости от 1 до 10 км при отсутствии осадков обычно наблюдается дымка, при ухудшении видимости до 1 км и менее - туман. В сухую погоду видимость может ухудшаться дымом, пылью или мглою.
Явления - указаны атмосферные явления, наблюдавшиеся в срок или в последний час перед сроком; фигурными скобками обозначены явления, наблюдавшиеся между сроками (за 1-3 часа до срока); квадратными скобками обозначены град или гололедные отложения с указанием их диаметра в мм.
Облачность - указаны через наклонную черту общая и нижняя облачность в баллах и высота нижней границы облаков в метрах; квадратными скобками обозначены формы облаков: Ci - перистые, Cs - перисто-слоистые, Cc - перисто-кучевые, Ac - высококучевые, As - высокослоистые, Sc - слоисто-кучевые, Ns - слоисто-дождевые, Cu - кучевые, Cb - кучево-дождевые. Подробнее классификацию облаков см. в Атласе облаков (PDF).
T - Температура воздуха - температура, измеренная на высоте 2 м над землей.
Td - Температура точки росы - температура, при понижении до которой содержащийся в воздухе водяной пар достигнет насыщения.
f - Относительная влажность воздуха - влажноcть воздуха, измеренная на высоте 2 м над землей.
Te - Эффективная температура - температура, которую ощущает одетый по сезону человек в тени. Характеристика душности погоды. При расчете учитывается влияние влажности воздуха и скорости ветра на теплоощущения человека.
Tes - Эффективная температура на солнце - температура, которую ощущает человек, с поправкой на солнечный нагрев. Характеристика знойности погоды. Зависит от высоты солнца над горизонтом, облачности и скорости ветра. Ночью, в пасмурную погоду, а также при ветре 12 м/с и более поправка равна нулю.
P - Атмосферное давление - приведенное к уровню моря атмосферное давление.
Po - Атмосферное давление - измеренное на уровне метеостанции атмосферное давление.
Tmin - Минимальная температура - минимум температуры воздуха на высоте 2 м над землей.
Tmax - Максимальная температура - максимум температуры воздуха на высоте 2 м над землей.
R - Количество осадков - Количество выпавших осадков за период времени, мм. При наведении курсора мыши на число - период времени, за который выпало указанное количество осадков.
R24 - Количество осадков - Количество выпавших осадков за 24 часа, мм.
S - Снежный покров - Высота снежного покрова, см. При наведении курсора мыши на число - состояние снежного покрова и степень покрытия местности в баллах.